Weather History for Billings, MT

Change the Weather History Date:

Saturday, October 8, 2011

  Actual Average Record
Temperature  
Mean Temperature 49 °F 51 °F  
Max Temperature 56 °F 63 °F 87 °F (1980)
Min Temperature 42 °F 40 °F 17 °F (1985)
Degree Days  
Heating Degree Days 16 14  
Month to date heating degree days 42 103  
Since 1 July heating degree days 130 332  
Cooling Degree Days 0 0  
Month to date cooling degree days 22 0  
Year to date cooling degree days 734 633  
Moisture  
Dew Point 38 °F    
Average Humidity 71    
Maximum Humidity 96    
Minimum Humidity 46    
Precipitation  
Precipitation 0.07 in 0.05 in 0.49 in (1997)
Month to date precipitation 1.19 0.37  
Year to date precipitation 18.40 11.72  
Snow  
Snow 0.00 in 0.10 in 2.40 in (1993)
Month to date snowfall 0.0 0.9  
Since 1 July snowfall T 2.0  
Since 1 September snowfall 0.0 2.0  
Snow Depth 0.00 in    
Sea Level Pressure  
Sea Level Pressure 30.22 in    
Wind  
Wind Speed 4 mph (WSW)    
Max Wind Speed 14 mph    
Max Gust Speed 15 mph    
Visibility 10 miles    
Events Rain    
T = Trace of Precipitation, MM = Missing Value Source: NWS Daily Summary

Daily Weather History Graph

Daily Weather History Graph

Search for Another Location

Airport:

Trip Planner

Search our weather history database for the weather conditions in past years. The results will help you decide how hot, cold, wet, or windy it might be!

Date:

Astronomy

Oct. 08, 2011 Rise Set
Actual Time 7:21 AM MDT 6:41 PM MDT
Civil Twilight 6:51 AM MDT 7:11 PM MDT
Nautical Twilight 6:17 AM MDT 7:45 PM MDT
Astronomical Twilight 5:42 AM MDT 8:20 PM MDT
Moon 4:59 PM MDT (10/8) 4:03 AM MDT (10/8)
Length of Visible Light 12h 19m
Length of Day
11h 20m
Waxing Gibbous, 90% of the Moon is Illuminated
Oct 8
Waxing Gibbous
Oct 11
Full
Oct 19
Last Quarter
Oct 26
New
Nov 2
First Quarter

Hourly Weather History & Observations

Time (MDT) Temp. Windchill Dew Point Humidity Pressure Visibility Wind Dir Wind Speed Gust Speed Precip Events Conditions
12:53 AM 46.0 °F 39.9 °F 41.0 °F 83% 30.04 in 10.0 mi NNW 13.8 mph - 0.00 in Rain Light Rain
1:53 AM 44.1 °F 38.6 °F 41.0 °F 89% 30.07 in 10.0 mi North 10.4 mph - 0.01 in Rain Light Rain
2:53 AM 44.1 °F 39.5 °F 41.0 °F 89% 30.09 in 10.0 mi NW 8.1 mph - 0.03 in Rain Light Rain
3:53 AM 44.1 °F 39.5 °F 39.9 °F 85% 30.11 in 10.0 mi NNW 8.1 mph - 0.02 in Rain Light Rain
4:53 AM 43.0 °F 38.2 °F 41.0 °F 93% 30.12 in 10.0 mi WNW 8.1 mph - 0.01 in Rain Light Rain
5:53 AM 42.8 °F 40.1 °F 41.0 °F 93% 30.14 in 10.0 mi SSW 4.6 mph - N/A   Overcast
6:53 AM 42.8 °F 38.6 °F 41.0 °F 93% 30.18 in 10.0 mi WSW 6.9 mph - N/A   Mostly Cloudy
7:53 AM 43.0 °F - 39.0 °F 86% 30.24 in 10.0 mi Calm Calm - N/A   Mostly Cloudy
8:53 AM 45.0 °F 41.8 °F 39.9 °F 82% 30.23 in 10.0 mi North 5.8 mph - N/A   Mostly Cloudy
9:53 AM 46.0 °F - 39.9 °F 79% 30.27 in 10.0 mi Calm Calm - N/A   Mostly Cloudy
10:32 AM 46.4 °F - 41.0 °F 81% 30.26 in 10.0 mi Calm Calm - N/A   Mostly Cloudy
10:53 AM 46.0 °F - 39.9 °F 79% 30.29 in 10.0 mi Calm Calm - N/A   Mostly Cloudy
11:34 AM 46.4 °F 43.5 °F 39.2 °F 76% 30.28 in 10.0 mi SSW 5.8 mph - N/A   Overcast
11:53 AM 48.2 °F - 39.2 °F 71% 30.29 in 10.0 mi WSW 5.8 mph - N/A   Mostly Cloudy
12:53 PM 51.1 °F - 39.9 °F 66% 30.28 in 10.0 mi Calm Calm - N/A   Mostly Cloudy
1:53 PM 51.1 °F - 37.9 °F 61% 30.26 in 10.0 mi NW 5.8 mph - N/A   Mostly Cloudy
2:53 PM 54.0 °F - 35.1 °F 49% 30.25 in 10.0 mi Calm Calm - N/A   Scattered Clouds
3:53 PM 55.0 °F - 35.1 °F 47% 30.24 in 10.0 mi Variable 3.5 mph - N/A   Scattered Clouds
4:53 PM 54.0 °F - 34.0 °F 47% 30.25 in 10.0 mi Calm Calm - N/A   Mostly Cloudy
5:53 PM 53.6 °F - 35.6 °F 51% 30.24 in 10.0 mi Calm Calm - N/A   Mostly Cloudy
6:53 PM 52.0 °F - 36.0 °F 54% 30.26 in 10.0 mi Calm Calm - N/A   Mostly Cloudy
7:53 PM 51.1 °F - 36.0 °F 56% 30.27 in 10.0 mi SSE 4.6 mph - N/A   Partly Cloudy
8:53 PM 48.9 °F - 36.0 °F 61% 30.28 in 10.0 mi SE 6.9 mph - N/A   Partly Cloudy
9:53 PM 46.9 °F - 36.0 °F 66% 30.28 in 10.0 mi South 3.5 mph - N/A   Partly Cloudy
10:53 PM 45.0 °F 42.6 °F 36.0 °F 71% 30.28 in 10.0 mi South 4.6 mph - N/A   Clear
11:53 PM 45.0 °F 42.6 °F 35.1 °F 68% 30.27 in 10.0 mi South 4.6 mph - N/A   Clear